Home   Weather   Guangzhou   Past weeks

Flag for China Past Weather in Guangzhou, Guangdong, China — Yesterday and Last 2 Weeks

Now
63 °F

More clouds than sun.


Feels Like: 63 °F
Forecast: 59 / 73 °F
Wind: No wind

Location: Canton Airport

Current Time: Jan 18, 2017 at 12:20:57 pm

Latest Report: Jan 18, 2017 at 12:00 pm


Visibility: 4 mi

Pressure: 30.21 "Hg

Humidity: 73%

Dew Point: 54 °F

Location of GuangzhouLocation

Past Weather in Guangzhou — Graph

°F

Guangzhou Temperature Yesterday

Maximum temperature yesterday: 59 °F (at 11:30 am)
Minimum temperature yesterday: 54 °F (at 12:00 am)
Average temperature yesterday: 56 °F

High & Low Weather Summary for the Past Weeks

 TemperatureHumidityPressure
High82 °F (Jan 3, 1:30 pm)94% (Jan 4, 7:00 am)30.24 "Hg (Jan 4, 7:00 am)
Low50 °F (Jan 13, 2:00 am)44% (Jan 9, 4:00 pm)29.86 "Hg (Jan 7, 2:30 pm)
Average63 °F75%30.06 "Hg
* Reported Jan 3 11:00 am — Jan 18 11:00 am, Guangzhou, Weather by CustomWeather, © 2017

Note: Actual official high and low records may vary slightly from our data, if they occured in-between our weather recording intervals... More about our weather records

Advertising

Guangzhou Weather History for the Previous 24 Hours

Scroll right to see more
 ConditionsComfort  
Time TempWeatherWind HumidityBarometerVisibility
11:00 am
Wed, Jan 18
61 °FMore clouds than sun.1 mph77%30.24 "Hg4 mi
10:30 am61 °FMore clouds than sun.No wind77%30.24 "Hg4 mi
10:00 am59 °FOvercast.1 mph82%30.24 "Hg4 mi
9:30 am59 °FOvercast.1 mph82%30.24 "Hg4 mi
9:00 am59 °FOvercast.1 mph82%30.21 "Hg4 mi
8:30 am59 °FOvercast.1 mph77%30.21 "Hg5 mi
8:00 am59 °FOvercast.3 mph77%30.21 "Hg5 mi
7:30 am57 °FOvercast.1 mph88%30.18 "HgN/A
7:00 am57 °FOvercast.No wind88%30.18 "HgN/A
6:30 am57 °FOvercast.3 mph88%30.15 "HgN/A
6:00 am57 °FOvercast.1 mph88%30.15 "HgN/A
5:30 am57 °FOvercast.3 mph82%30.15 "HgN/A
5:00 am57 °FOvercast.3 mph82%30.15 "HgN/A
4:30 am57 °FOvercast.6 mph82%30.15 "HgN/A
4:00 am57 °FOvercast.3 mph82%30.18 "HgN/A
3:30 am57 °FOvercast.3 mph82%30.18 "HgN/A
3:00 am57 °FOvercast.1 mph82%30.18 "HgN/A
2:30 am57 °FOvercast.3 mph82%30.18 "HgN/A
2:00 am57 °FOvercast.3 mph82%30.18 "HgN/A
1:30 am57 °FOvercast.6 mph82%30.18 "HgN/A
1:00 am57 °FOvercast.6 mph82%30.21 "HgN/A
12:30 am57 °FOvercast.1 mph82%30.21 "HgN/A
12:00 am57 °FOvercast.1 mph82%30.21 "HgN/A
11:30 pm
Tue, Jan 17
57 °FOvercast.1 mph82%30.21 "HgN/A
11:00 pm57 °FOvercast.1 mph82%30.21 "HgN/A
10:30 pm57 °FOvercast.3 mph77%30.21 "HgN/A
10:00 pm57 °FOvercast.6 mph77%30.21 "HgN/A
9:30 pm57 °FOvercast.6 mph77%30.21 "HgN/A
9:00 pm57 °FOvercast.6 mph82%30.21 "HgN/A
8:30 pm57 °FOvercast.6 mph82%30.18 "HgN/A
8:00 pm57 °FOvercast.3 mph82%30.18 "HgN/A
7:30 pm57 °FOvercast.6 mph82%30.15 "HgN/A
7:00 pm57 °FOvercast.6 mph77%30.15 "HgN/A
6:30 pm57 °FOvercast.8 mph77%30.15 "HgN/A
6:00 pm57 °FOvercast.8 mph77%30.12 "HgN/A
5:30 pm59 °FOvercast.8 mph72%30.12 "HgN/A
5:00 pm59 °FOvercast.6 mph77%30.12 "HgN/A
4:30 pm59 °FOvercast.8 mph77%30.12 "HgN/A
4:00 pm59 °FOvercast.8 mph77%30.12 "HgN/A
3:30 pm59 °FMore clouds than sun.10 mph72%30.12 "HgN/A
3:00 pm59 °FPartly sunny.10 mph77%30.12 "HgN/A
2:30 pm59 °FBroken clouds.10 mph77%30.12 "HgN/A
2:00 pm59 °FBroken clouds.10 mph77%30.15 "HgN/A
1:30 pm59 °FBroken clouds.8 mph77%30.15 "HgN/A
1:00 pm59 °FBroken clouds.8 mph77%30.15 "HgN/A
12:30 pm59 °FBroken clouds.10 mph77%30.18 "Hg6 mi
12:00 pm59 °FBroken clouds.8 mph77%30.18 "Hg6 mi
Weather by CustomWeather, © 2017

See weather overviewHow to use our weather pages